When you browse on this site, cookies collect data to enhance your experience and personalize the content and advertising you see.
Visit our Privacy Policy to learn more. By continuing to use the site, you agree to this use of cookies and data.
  • In Latvia
  • List of Countries
  • For 7 days
  • Water Temperature
  • Weather Map
  • Weather Widgets
  • user-avatar
    Login

    Hourly Weather Ulyanovskiy

    Today, 19 August, Monday

    Time Temperature Precipitation Wind Pressure Humidity
    00:00 +24°C° 0 mm 3 mps 752 mmHg 43%
    01:00 +22°C° 0 mm 3 mps 752 mmHg 44%
    02:00 +22°C° 0 mm 3 mps 752 mmHg 45%
    03:00 +21°C° 0 mm 2 mps 752 mmHg 46%
    04:00 +21°C° 0 mm 2 mps 752 mmHg 48%
    05:00 +23°C° 0 mm 2 mps 752 mmHg 51%
    06:00 +23°C° 0 mm 2 mps 752 mmHg 53%
    07:00 +24°C° 0 mm 3 mps 753 mmHg 50%
    08:00 +26°C° 0 mm 4 mps 753 mmHg 46%
    09:00 +28°C° 0 mm 4 mps 753 mmHg 43%
    10:00 +29°C° 0 mm 4 mps 753 mmHg 40%
    11:00 +32°C° 0 mm 5 mps 753 mmHg 36%
    12:00 +33°C° 0 mm 5 mps 753 mmHg 33%
    13:00 +34°C° 0 mm 5 mps 753 mmHg 33%
    14:00 +34°C° 0 mm 4 mps 753 mmHg 32%
    15:00 +35°C° 0 mm 4 mps 753 mmHg 31%
    16:00 +33°C° 0 mm 3 mps 753 mmHg 36%
    17:00 +31°C° 0 mm 2 mps 752 mmHg 41%
    18:00 +29°C° 0 mm 1 mps 752 mmHg 46%
    19:00 +28°C° 0 mm 1 mps 753 mmHg 47%
    20:00 +25°C° 0 mm 0 mps 753 mmHg 47%
    21:00 +23°C° 0 mm 0 mps 753 mmHg 47%
    22:00 +23°C° 0 mm 0 mps 753 mmHg 48%
    23:00 +22°C° 0 mm 0 mps 753 mmHg 49%

    Tomorrow, 20 August, Tuesday

    Time Temperature Precipitation Wind Pressure Humidity
    00:00 +24°C° 0 mm 1 mps 753 mmHg 50%
    01:00 +23°C° 0 mm 1 mps 753 mmHg 52%
    02:00 +23°C° 0 mm 1 mps 753 mmHg 55%
    03:00 +22°C° 0 mm 1 mps 753 mmHg 57%
    04:00 +22°C° 0 mm 1 mps 753 mmHg 65%
    05:00 +21°C° 0 mm 2 mps 753 mmHg 72%
    06:00 +21°C° 0 mm 2 mps 753 mmHg 79%
    07:00 +24°C° 0 mm 2 mps 753 mmHg 75%
    08:00 +25°C° 0 mm 3 mps 754 mmHg 70%
    09:00 +27°C° 0 mm 3 mps 754 mmHg 66%
    10:00 +28°C° 0 mm 3 mps 754 mmHg 63%
    11:00 +29°C° 0 mm 3 mps 754 mmHg 60%
    12:00 +29°C° 0 mm 3 mps 754 mmHg 57%
    13:00 +30°C° 0 mm 3 mps 754 mmHg 56%
    14:00 +30°C° 0 mm 3 mps 754 mmHg 55%
    15:00 +30°C° 0 mm 3 mps 754 mmHg 53%
    16:00 +29°C° 0 mm 3 mps 754 mmHg 58%
    17:00 +28°C° 0 mm 3 mps 753 mmHg 63%
    18:00 +26°C° 0 mm 3 mps 753 mmHg 68%
    19:00 +25°C° 0 mm 3 mps 754 mmHg 70%
    20:00 +24°C° 0 mm 3 mps 754 mmHg 72%
    21:00 +22°C° 0 mm 3 mps 754 mmHg 74%
    22:00 +21°C° 0 mm 3 mps 754 mmHg 77%
    23:00 +21°C° 0 mm 3 mps 754 mmHg 80%

    Day after tomorrow, 21 August, Wednesday

    Time Temperature Precipitation Wind Pressure Humidity
    00:00 +20°C° 0 mm 3 mps 754 mmHg 83%
    01:00 +20°C° 0 mm 2 mps 754 mmHg 86%
    02:00 +19°C° 0 mm 2 mps 755 mmHg 89%
    03:00 +19°C° 0 mm 2 mps 755 mmHg 92%
    04:00 +19°C° 0 mm 2 mps 755 mmHg 91%
    05:00 +19°C° 0 mm 3 mps 755 mmHg 90%
    06:00 +19°C° 0 mm 3 mps 755 mmHg 90%
    07:00 +21°C° 0 mm 3 mps 755 mmHg 83%
    08:00 +22°C° 0 mm 3 mps 755 mmHg 76%
    09:00 +25°C° 0 mm 4 mps 755 mmHg 69%
    10:00 +26°C° 0 mm 4 mps 755 mmHg 66%
    11:00 +26°C° 0 mm 4 mps 755 mmHg 63%
    12:00 +27°C° 0 mm 4 mps 755 mmHg 60%
    13:00 +27°C° 0 mm 4 mps 755 mmHg 60%
    14:00 +27°C° 0 mm 4 mps 755 mmHg 59%
    15:00 +28°C° 0 mm 4 mps 755 mmHg 59%
    16:00 +27°C° 0 mm 4 mps 755 mmHg 63%
    17:00 +26°C° 0 mm 3 mps 755 mmHg 67%
    18:00 +25°C° 0 mm 3 mps 755 mmHg 70%
    19:00 +24°C° 0 mm 3 mps 755 mmHg 75%
    20:00 +22°C° 0 mm 3 mps 755 mmHg 80%
    21:00 +20°C° 0 mm 3 mps 755 mmHg 85%
    22:00 +20°C° 0 mm 2 mps 755 mmHg 87%
    23:00 +19°C° 0 mm 2 mps 755 mmHg 89%

    22 August, Thursday

    Time Temperature Precipitation Wind Pressure Humidity
    00:00 +19°C° 0 mm 2 mps 755 mmHg 91%
    01:00 +19°C° 0 mm 2 mps 755 mmHg 92%
    02:00 +18°C° 0 mm 2 mps 755 mmHg 93%
    03:00 +19°C° 0 mm 1 mps 756 mmHg 93%
    04:00 +20°C° 0 mm 1 mps 755 mmHg 92%
    05:00 +20°C° 0 mm 1 mps 755 mmHg 90%
    06:00 +20°C° 0 mm 1 mps 755 mmHg 89%
    07:00 +21°C° 0 mm 2 mps 755 mmHg 82%
    08:00 +23°C° 0 mm 2 mps 755 mmHg 74%
    09:00 +25°C° 0 mm 2 mps 756 mmHg 67%
    10:00 +26°C° 0 mm 2 mps 755 mmHg 63%
    11:00 +26°C° 0 mm 2 mps 755 mmHg 59%
    12:00 +27°C° 0 mm 2 mps 755 mmHg 55%
    13:00 +28°C° 0 mm 2 mps 755 mmHg 53%
    14:00 +28°C° 0 mm 2 mps 755 mmHg 52%
    15:00 +28°C° 0 mm 2 mps 754 mmHg 50%
    16:00 +27°C° 0 mm 2 mps 754 mmHg 56%
    17:00 +26°C° 0 mm 2 mps 754 mmHg 61%
    18:00 +25°C° 0 mm 2 mps 753 mmHg 67%
    19:00 +24°C° 0 mm 2 mps 754 mmHg 70%
    20:00 +23°C° 0 mm 1 mps 754 mmHg 73%
    21:00 +22°C° 0 mm 1 mps 754 mmHg 76%
    22:00 +21°C° 0 mm 1 mps 754 mmHg 77%
    23:00 +21°C° 0 mm 1 mps 754 mmHg 77%

    23 August, Friday

    Time Temperature Precipitation Wind Pressure Humidity
    00:00 +21°C° 0 mm 1 mps 754 mmHg 78%
    01:00 +20°C° 0 mm 1 mps 754 mmHg 79%
    02:00 +20°C° 0 mm 1 mps 754 mmHg 80%
    03:00 +18°C° 0 mm 0 mps 754 mmHg 81%
    04:00 +18°C° 0 mm 0 mps 753 mmHg 80%
    05:00 +18°C° 0 mm 0 mps 753 mmHg 79%
    06:00 +19°C° 0 mm 0 mps 753 mmHg 78%
    07:00 +23°C° 0 mm 1 mps 753 mmHg 72%
    08:00 +24°C° 0 mm 1 mps 753 mmHg 65%
    09:00 +26°C° 0 mm 1 mps 753 mmHg 59%
    10:00 +27°C° 0 mm 1 mps 753 mmHg 54%
    11:00 +28°C° 0 mm 1 mps 753 mmHg 50%
    12:00 +29°C° 0 mm 1 mps 752 mmHg 46%
    13:00 +30°C° 0 mm 2 mps 752 mmHg 45%
    14:00 +30°C° 0 mm 2 mps 752 mmHg 43%
    15:00 +31°C° 0 mm 2 mps 752 mmHg 41%
    16:00 +30°C° 0 mm 2 mps 751 mmHg 46%
    17:00 +29°C° 0 mm 1 mps 751 mmHg 50%
    18:00 +28°C° 0 mm 1 mps 751 mmHg 55%
    19:00 +26°C° 0 mm 1 mps 751 mmHg 61%
    20:00 +25°C° 0 mm 1 mps 751 mmHg 67%
    21:00 +23°C° 0 mm 2 mps 750 mmHg 73%
    22:00 +23°C° 0.1 mm 1 mps 750 mmHg 75%
    23:00 +22°C° 0.1 mm 1 mps 750 mmHg 77%

    24 August, Saturday

    Time Temperature Precipitation Wind Pressure Humidity
    00:00 +22°C° 0.1 mm 1 mps 750 mmHg 80%
    01:00 +20°C° 0.3 mm 2 mps 750 mmHg 85%
    02:00 +20°C° 0.3 mm 3 mps 750 mmHg 90%
    03:00 +19°C° 0.3 mm 4 mps 750 mmHg 96%
    04:00 +19°C° 0.7 mm 4 mps 750 mmHg 95%
    05:00 +19°C° 0.7 mm 4 mps 750 mmHg 95%
    06:00 +19°C° 0.7 mm 4 mps 750 mmHg 95%
    07:00 +19°C° 0.3 mm 4 mps 750 mmHg 94%
    08:00 +19°C° 0.3 mm 4 mps 750 mmHg 93%
    09:00 +19°C° 0.3 mm 4 mps 750 mmHg 92%
    10:00 +20°C° 0.2 mm 4 mps 750 mmHg 86%
    11:00 +21°C° 0.2 mm 4 mps 750 mmHg 81%
    12:00 +22°C° 0.2 mm 4 mps 751 mmHg 75%
    13:00 +23°C° 0.3 mm 4 mps 751 mmHg 72%
    14:00 +23°C° 0.3 mm 4 mps 751 mmHg 68%
    15:00 +23°C° 0.3 mm 4 mps 751 mmHg 65%
    16:00 +22°C° 0 mm 4 mps 751 mmHg 67%
    17:00 +21°C° 0 mm 4 mps 751 mmHg 69%
    18:00 +21°C° 0 mm 4 mps 751 mmHg 72%
    19:00 +19°C° 0 mm 3 mps 751 mmHg 75%
    20:00 +18°C° 0 mm 3 mps 751 mmHg 78%
    21:00 +17°C° 0 mm 3 mps 752 mmHg 81%
    22:00 +17°C° 0 mm 3 mps 752 mmHg 81%
    23:00 +16°C° 0 mm 3 mps 752 mmHg 80%
    Show more